Hays, KS

4:20 AM CDT on August 18, 2017 (GMT -0500)
Hays Regional

Weather History for KHYS - October, 2011

Change the Weather History Date:

Monday, October 3, 2011

  Actual Average Record
Temperature  
Mean Temperature 70 °F -  
Max Temperature 91 °F 71 °F 98 °F (2006)
Min Temperature 48 °F 45 °F 33 °F (2010)
Cooling Degree Days 4    
Growing Degree Days 20 (Base 50)    
Moisture  
Dew Point 40 °F    
Average Humidity 38    
Maximum Humidity 62    
Minimum Humidity 20    
Precipitation  
Precipitation 0.00 in - - ()
Sea Level Pressure  
Sea Level Pressure 30.06 in    
Wind  
Wind Speed 11 mph (SSE)    
Max Wind Speed 23 mph    
Max Gust Speed 28 mph    
Visibility 10 miles    
Events      
Averages and records for this station are not official NWS values.
T = Trace of Precipitation, MM = Missing Value Source: NWS Daily Summary

Daily Weather History Graph

Daily Weather History Graph

Search for Another Location

Airport or City:

Trip Planner

Search our weather history database for the weather conditions in past years. The results will help you decide how hot, cold, wet, or windy it might be!

Date:

Astronomy

Oct. 03, 2011 Rise Set
Actual Time 7:34 AM CDT 7:17 PM CDT
Civil Twilight 7:08 AM CDT 7:43 PM CDT
Nautical Twilight 6:37 AM CDT 8:14 PM CDT
Astronomical Twilight 6:06 AM CDT 8:45 PM CDT
Moon 2:30 PM CDT (10/3) No Moon Set
Length of Visible Light 12h 35m
Length of Day
11h 42m
Waxing Crescent, 45% of the Moon is Illuminated
Oct 3
Waxing Crescent
Oct 3
First Quarter
Oct 11
Full
Oct 19
Last Quarter
Oct 26
New

Hourly Weather History & Observations

Time (CDT) Temp. Dew Point Humidity Pressure Visibility Wind Dir Wind Speed Gust Speed Precip Events Conditions
12:15 AM 60.8 °F 35.6 °F 39% 30.09 in 10.0 mi ESE 10.4 mph - N/A   Clear
12:35 AM 60.8 °F 35.6 °F 39% 30.08 in 10.0 mi SE 11.5 mph - N/A   Clear
12:55 AM 60.8 °F 35.6 °F 39% 30.08 in 10.0 mi SE 11.5 mph - N/A   Clear
1:15 AM 60.8 °F 35.6 °F 39% 30.08 in 10.0 mi SE 10.4 mph - N/A   Clear
1:35 AM 60.8 °F 35.6 °F 39% 30.08 in 10.0 mi SE 10.4 mph - N/A   Clear
1:55 AM 59.0 °F 35.6 °F 42% 30.08 in 10.0 mi SE 9.2 mph - N/A   Clear
2:15 AM 57.2 °F 35.6 °F 44% 30.08 in 10.0 mi SE 9.2 mph - N/A   Clear
2:35 AM 57.2 °F 35.6 °F 44% 30.08 in 10.0 mi SE 9.2 mph - N/A   Clear
2:55 AM 57.2 °F 35.6 °F 44% 30.08 in 10.0 mi SE 9.2 mph - N/A   Clear
3:15 AM 57.2 °F 37.4 °F 48% 30.08 in 10.0 mi SE 10.4 mph - N/A   Clear
3:35 AM 57.2 °F 37.4 °F 48% 30.07 in 10.0 mi SSE 10.4 mph - N/A   Clear
3:55 AM 55.4 °F 37.4 °F 51% 30.07 in 10.0 mi SSE 10.4 mph - N/A   Clear
4:15 AM 55.4 °F 37.4 °F 51% 30.07 in 10.0 mi SSE 9.2 mph - N/A   Clear
4:35 AM 53.6 °F 35.6 °F 51% 30.07 in 10.0 mi SSE 9.2 mph - N/A   Clear
4:55 AM 53.6 °F 35.6 °F 51% 30.07 in 10.0 mi SSE 9.2 mph - N/A   Clear
5:15 AM 53.6 °F 35.6 °F 51% 30.07 in 10.0 mi SE 5.8 mph - N/A   Clear
5:35 AM 51.8 °F 35.6 °F 54% 30.07 in 10.0 mi SSE 8.1 mph - N/A   Clear
5:55 AM 51.8 °F 35.6 °F 54% 30.07 in 10.0 mi SSE 5.8 mph - N/A   Clear
6:15 AM 50.0 °F 35.6 °F 58% 30.07 in 10.0 mi SE 4.6 mph - N/A   Clear
6:35 AM 51.8 °F 35.6 °F 54% 30.08 in 10.0 mi SSE 6.9 mph - N/A   Clear
6:55 AM 48.2 °F 35.6 °F 62% 30.08 in 10.0 mi SE 8.1 mph - N/A   Clear
7:15 AM 48.2 °F 35.6 °F 62% 30.08 in 10.0 mi SSE 9.2 mph - N/A   Clear
7:35 AM 48.2 °F 35.6 °F 62% 30.09 in 10.0 mi SSE 8.1 mph - N/A   Clear
7:55 AM 48.2 °F 35.6 °F 62% 30.09 in 10.0 mi SSE 8.1 mph - N/A   Clear
8:15 AM 50.0 °F 37.4 °F 62% 30.09 in 10.0 mi SSE 9.2 mph - N/A   Clear
8:35 AM 53.6 °F 37.4 °F 54% 30.10 in 10.0 mi SSE 9.2 mph - N/A   Clear
8:55 AM 55.4 °F 37.4 °F 51% 30.10 in 10.0 mi South 11.5 mph - N/A   Clear
9:15 AM 57.2 °F 37.4 °F 48% 30.10 in 10.0 mi South 11.5 mph - N/A   Clear
9:35 AM 60.8 °F 37.4 °F 42% 30.10 in 10.0 mi South 10.4 mph - N/A   Clear
9:55 AM 64.4 °F 37.4 °F 37% 30.11 in 10.0 mi South 11.5 mph - N/A   Clear
10:15 AM 66.2 °F 39.2 °F 37% 30.11 in 10.0 mi South 10.4 mph - N/A   Clear
10:35 AM 68.0 °F 39.2 °F 35% 30.10 in 10.0 mi South 10.4 mph - N/A   Clear
10:55 AM 71.6 °F 41.0 °F 33% 30.10 in 10.0 mi South 9.2 mph - N/A   Clear
11:15 AM 73.4 °F 41.0 °F 31% 30.11 in 10.0 mi South 8.1 mph - N/A   Clear
11:35 AM 75.2 °F 41.0 °F 29% 30.10 in 10.0 mi SW 8.1 mph - N/A   Clear
11:55 AM 77.0 °F 42.8 °F 29% 30.10 in 10.0 mi South 8.1 mph - N/A   Clear
12:15 PM 78.8 °F 42.8 °F 28% 30.10 in 10.0 mi South 8.1 mph - N/A   Clear
12:35 PM 80.6 °F 42.8 °F 26% 30.10 in 10.0 mi SSE 3.5 mph - N/A   Clear
1:15 PM 84.2 °F 44.6 °F 25% 30.08 in 10.0 mi South 5.8 mph - N/A   Clear
1:35 PM 84.2 °F 44.6 °F 25% 30.08 in 10.0 mi South 8.1 mph - N/A   Clear
1:55 PM 87.8 °F 44.6 °F 22% 30.06 in 10.0 mi SSE 8.1 mph - N/A   Clear
2:15 PM 87.8 °F 44.6 °F 22% 30.05 in 10.0 mi South 9.2 mph - N/A   Clear
2:35 PM 89.6 °F 44.6 °F 21% 30.04 in 10.0 mi SSE 15.0 mph 19.6 mph N/A   Clear
3:15 PM 91.4 °F 46.4 °F 21% 30.03 in 10.0 mi SSE 13.8 mph 18.4 mph N/A   Clear
3:35 PM 91.4 °F 46.4 °F 21% 30.02 in 10.0 mi SE 15.0 mph 21.9 mph N/A   Clear
3:55 PM 91.4 °F 44.6 °F 20% 30.02 in 10.0 mi SE 17.3 mph - N/A   Clear
4:15 PM 91.4 °F 44.6 °F 20% 30.01 in 10.0 mi SE 17.3 mph 21.9 mph N/A   Clear
4:35 PM 91.4 °F 44.6 °F 20% 30.01 in 10.0 mi SE 20.7 mph 24.2 mph N/A   Clear
5:15 PM 91.4 °F 44.6 °F 20% 30.00 in 10.0 mi SE 23.0 mph 27.6 mph N/A   Clear
5:35 PM 91.4 °F 44.6 °F 20% 30.00 in 10.0 mi SE 21.9 mph 25.3 mph N/A   Clear
5:55 PM 89.6 °F 44.6 °F 21% 30.00 in 10.0 mi SE 21.9 mph 26.5 mph N/A   Clear
6:15 PM 87.8 °F 44.6 °F 22% 30.01 in 10.0 mi SE 17.3 mph - N/A   Clear
6:35 PM 86.0 °F 44.6 °F 23% 30.01 in 10.0 mi SE 16.1 mph - N/A   Clear
6:55 PM 84.2 °F 44.6 °F 25% 30.01 in 10.0 mi SE 16.1 mph - N/A   Clear
7:35 PM 82.4 °F 42.8 °F 25% 30.02 in 10.0 mi SSE 13.8 mph - N/A   Clear
7:55 PM 80.6 °F 42.8 °F 26% 30.02 in 10.0 mi SSE 13.8 mph - N/A   Clear
8:35 PM 75.2 °F 42.8 °F 31% 30.02 in 10.0 mi SSE 12.7 mph - N/A   Clear
8:55 PM 75.2 °F 44.6 °F 34% 30.03 in 7.0 mi SSE 12.7 mph - N/A   Clear
9:15 PM 75.2 °F 44.6 °F 34% 30.03 in 10.0 mi South 13.8 mph - N/A   Clear
9:35 PM 75.2 °F 44.6 °F 34% 30.04 in 10.0 mi South 13.8 mph - N/A   Clear
9:55 PM 73.4 °F 44.6 °F 36% 30.04 in 10.0 mi South 13.8 mph - N/A   Clear
10:15 PM 73.4 °F 44.6 °F 36% 30.05 in 10.0 mi South 12.7 mph - N/A   Clear
10:35 PM 75.2 °F 44.6 °F 34% 30.05 in 10.0 mi South 15.0 mph 21.9 mph N/A   Clear
10:55 PM 75.2 °F 44.6 °F 34% 30.05 in 10.0 mi SSW 15.0 mph - N/A   Clear
11:15 PM 75.2 °F 44.6 °F 34% 30.06 in 10.0 mi SSW 13.8 mph 20.7 mph N/A   Clear
11:35 PM 73.4 °F 44.6 °F 36% 30.06 in 10.0 mi SSW 13.8 mph - N/A   Clear
11:55 PM 73.4 °F 44.6 °F 36% 30.06 in 10.0 mi SSW 12.7 mph - N/A   Clear